Location: ??????
(55.6500°N, 37.8000°E)
Time: 04:23:58
(UTC+00:00)

Lacrosse 5 - Pass Details

Date: 14 April 2024
Orbit: 714 x 724 km, 57.0° (Epoch: 09 March)

Event Time Altitude Azimuth Distance (km) Brightness Sun altitude
Exits shadow 00:05:37 31° 223° (SW) 1,256 2.5 -17.2°
Maximum altitude 00:07:58 65° 152° (SSE) 801 2.0 -17.0°
Drops below altitude 10° 00:13:02 10° 72° (ENE) 2,222 5.3 -16.5°
Sets 00:15:26 0° 69° (ENE) 3,145 6.4 -16.2°
